Change the Weather History Date:

Monday, April 22, 2013

  Actual Average Record
Temperature  
Mean Temperature 38 °F 45 °F  
Max Temperature 51 °F 59 °F 82 °F (1977)
Min Temperature 25 °F 30 °F 18 °F (1968)
Degree Days  
Heating Degree Days 27 20  
Month to date heating degree days 521 492  
Since 1 July heating degree days 6742 6860  
Cooling Degree Days 0 0  
Month to date cooling degree days 0 0  
Year to date cooling degree days 0 0  
Moisture  
Dew Point 23 °F    
Average Humidity 57    
Maximum Humidity 92    
Minimum Humidity 22    
Precipitation  
Precipitation 0.00 in 0.03 in 0.53 in (1979)
Month to date precipitation 0.35 0.58  
Year to date precipitation 1.93 2.78  
Sea Level Pressure  
Sea Level Pressure 30.33 in    
Wind  
Wind Speed 15 mph (NW)    
Max Wind Speed 29 mph    
Max Gust Speed 35 mph    
Visibility 10 miles    
Events      
T = Trace of Precipitation, MM = Missing Value Source: NWS Daily Summary

Daily Weather History Graph

Daily Weather History Graph

Search for Another Location

Airport or City:

Trip Planner

Search our weather history database for the weather conditions in past years. The results will help you decide how hot, cold, wet, or windy it might be!

Date:

Astronomy

Apr. 22, 2013 Rise Set
Actual Time 5:54 AM PDT 7:45 PM PDT
Civil Twilight 5:23 AM PDT 8:17 PM PDT
Nautical Twilight 4:44 AM PDT 8:55 PM PDT
Astronomical Twilight 4:03 AM PDT 9:37 PM PDT
Moon 4:32 PM PDT (4/22) 4:00 AM PDT (4/22)
Length of Visible Light 14h 53m
Length of Day
13h 51m
Waxing Gibbous, 88% of the Moon is Illuminated
Apr 22
Waxing Gibbous
Apr 25
Full
May 2
Last Quarter
May 9
New
May 17
First Quarter

Hourly Weather History & Observations

Time (PDT) Temp. Windchill Dew Point Humidity Pressure Visibility Wind Dir Wind Speed Gust Speed Precip Events Conditions
12:53 AM 37.0 °F 32.4 °F 28.9 °F 73% 30.20 in 10.0 mi West 5.8 mph - 0.00 in   Overcast
1:53 AM 36.0 °F - 30.0 °F 79% 30.22 in 10.0 mi Calm Calm - N/A   Overcast
2:53 AM 36.0 °F 30.3 °F 30.0 °F 79% 30.22 in 10.0 mi NW 6.9 mph - N/A   Overcast
3:53 AM 35.1 °F 27.9 °F 28.0 °F 76% 30.24 in 10.0 mi NW 9.2 mph - N/A   Overcast
4:53 AM 30.9 °F 21.2 °F 27.0 °F 85% 30.26 in 10.0 mi NW 12.7 mph - N/A   Clear
5:53 AM 28.9 °F 18.2 °F 26.1 °F 89% 30.30 in 10.0 mi NW 13.8 mph - N/A   Clear
6:53 AM 33.1 °F 23.9 °F 27.0 °F 78% 30.31 in 10.0 mi NW 12.7 mph - N/A   Clear
7:53 AM 39.0 °F 29.6 °F 27.0 °F 62% 30.32 in 10.0 mi NW 18.4 mph - N/A   Clear
8:53 AM 43.0 °F 33.8 °F 24.1 °F 47% 30.33 in 10.0 mi NW 23.0 mph 28.8 mph N/A   Clear
9:53 AM 44.1 °F 35.0 °F 21.9 °F 42% 30.35 in 10.0 mi NW 24.2 mph 29.9 mph N/A   Clear
10:53 AM 46.0 °F 38.0 °F 21.9 °F 39% 30.36 in 10.0 mi NW 21.9 mph 29.9 mph N/A   Clear
11:53 AM 46.9 °F - 19.0 °F 33% 30.36 in 10.0 mi WNW 20.7 mph 27.6 mph N/A   Partly Cloudy
12:53 PM 50.0 °F - 14.0 °F 24% 30.35 in 10.0 mi NNW 21.9 mph 31.1 mph N/A   Partly Cloudy
1:53 PM 50.0 °F - 18.0 °F 28% 30.35 in 10.0 mi NW 23.0 mph 28.8 mph N/A   Partly Cloudy
2:53 PM 51.1 °F - 19.9 °F 29% 30.34 in 10.0 mi WNW 21.9 mph 28.8 mph N/A   Partly Cloudy
3:53 PM 50.0 °F - 19.0 °F 29% 30.33 in 10.0 mi NW 16.1 mph 26.5 mph N/A   Partly Cloudy
4:53 PM 48.9 °F - 21.0 °F 33% 30.34 in 10.0 mi WNW 20.7 mph 25.3 mph N/A   Partly Cloudy
5:53 PM 48.0 °F - 21.0 °F 34% 30.35 in 10.0 mi NW 17.3 mph 25.3 mph N/A   Partly Cloudy
6:53 PM 45.0 °F 38.5 °F 21.0 °F 39% 30.36 in 10.0 mi WNW 13.8 mph - N/A   Clear
7:53 PM 39.0 °F 31.8 °F 21.0 °F 49% 30.37 in 10.0 mi NW 11.5 mph - N/A   Clear
8:53 PM 36.0 °F 27.1 °F 23.0 °F 59% 30.38 in 10.0 mi NW 13.8 mph - N/A   Clear
9:53 PM 35.1 °F 27.9 °F 21.0 °F 57% 30.40 in 10.0 mi NW 9.2 mph - N/A   Clear
10:53 PM 30.9 °F 23.5 °F 19.0 °F 61% 30.40 in 10.0 mi WNW 8.1 mph - N/A   Clear
11:53 PM 28.0 °F 18.6 °F 19.0 °F 69% 30.40 in 10.0 mi WNW 10.4 mph - N/A   Clear